[[{"header":{"parameterUnit":"m.s-1","parameterCategory":1,"la1":30.2991,"la2":30.254,"lo1":-89.0895,"lo2":-89.0444,"dy":0.0017,"dx":0.0017,"nx":28,"ny":28,"refTime":"2025-03-14T21:00:00:Z","depth":0,"parameterNumber":2,"parameterNumberName":"U-component_of_WINDS"},"data":[0,0,0,0,0,0,0,0,0,0,0,0,0,0,0,0,0,0,0,0,0,0,0,0,0,0,0,0,0,0,0,0,0,0,0,0,0,0,0,0,0,0,0,0,0,0,0,0,0,0,0,0,0,0,0,0,0,0,-5.5614,-5.5615,0,-5.5724,-5.5725,-5.5726,-5.5714,-5.5712,-5.571,-5.5709,-5.5817,-5.5821,-5.5825,0,0,0,0,0,0,0,0,0,0,0,0,0,-5.5392,-5.5396,-5.5614,-5.5616,-5.5617,-5.5723,-5.5725,-5.5726,-5.5714,-5.5712,-5.571,-5.5708,-5.5815,-5.582,-5.5826,0,0,0,0,0,0,0,0,0,0,0,0,0,-5.5493,-5.5397,-5.5614,-5.5624,-5.5626,-5.5723,-5.5725,-5.5727,-5.5714,-5.5712,-5.5709,-5.5707,-5.5813,-5.582,-5.5827,-5.592,0,0,-5.5847,-5.585,0,0,0,0,0,0,0,0,-5.5488,-5.5501,-5.5621,-5.5623,-5.5626,-5.5702,-5.5686,-5.5792,-5.5715,-5.5681,-5.5708,-5.5705,-5.578,-5.579,-5.5816,-5.5925,-5.593,-5.5848,-5.5852,-5.5855,-5.5857,0,0,0,0,0,0,0,-5.5481,-5.5497,-5.5657,-5.5623,-5.5625,-5.5622,-5.5633,-5.5706,-5.5744,-5.5683,-5.5683,-5.5696,-5.5781,-5.5809,-5.5818,-5.5932,-5.5848,-5.5854,-5.5858,-5.586,-5.6123,-5.6126,0,0,0,0,0,0,-5.5472,-5.5491,-5.5654,-5.5661,-5.5549,-5.5628,-5.5641,-5.568,-5.5743,-5.575,-5.5698,-5.5695,-5.5799,-5.581,-5.5822,-5.5935,-5.5855,-5.5861,-5.5865,-5.612,-5.6124,-5.6127,0,0,0,0,0,0,-5.5467,-5.5486,-5.5649,-5.5576,-5.5596,-5.5634,-5.5679,-5.5684,-5.5712,-5.5754,-5.576,-5.572,-5.5798,-5.5813,-5.5896,-5.5938,-5.5864,-5.587,-5.6117,-5.6121,-5.6125,-5.6162,0,0,0,0,0,0,-5.546,-5.5485,-5.5521,-5.5577,-5.56,-5.5722,-5.5682,-5.5688,-5.5724,-5.5721,-5.5776,-5.5783,-5.5797,-5.5886,-5.5903,-5.5946,-5.5875,-5.6113,-5.6119,-5.6124,-5.6157,-5.6167,-5.6175,0,0,0,0,0,-5.5453,-5.5526,-5.5523,-5.5543,-5.5647,-5.5725,-5.5738,-5.5754,-5.5728,-5.5764,-5.5791,-5.5781,-5.5932,-5.5895,-5.5914,-5.596,-5.611,-5.6117,-5.6124,-5.6153,-5.6165,-5.6175,0,0,0,0,0,0,-5.5473,-5.5533,-5.5531,-5.5625,-5.567,-5.5723,-5.5769,-5.5766,-5.5819,-5.5813,-5.5829,-5.5842,-5.5926,-5.5952,-5.5909,-5.6054,-5.6017,-5.6028,-5.6033,-5.6045,-5.6054,-5.6045,-5.5881,0,0,0,0,0,-5.5488,-5.5548,-5.5598,-5.5676,-5.5699,-5.573,-5.5765,-5.5773,-5.582,-5.5839,-5.5872,-5.5917,-5.5974,-5.6012,-5.6067,-5.6162,-5.6173,-5.6203,-5.6212,-5.622,-5.6228,-5.6279,-5.6292,-5.6149,-5.6149,-5.6148,0,0,-5.552,-5.5561,-5.5597,-5.5681,-5.5717,-5.5777,-5.5746,-5.5811,-5.5855,-5.5848,-5.5929,-5.5955,-5.6007,-5.6096,-5.6137,-5.612,-5.627,-5.6228,-5.6234,-5.6238,-5.6287,-5.6301,-5.6313,-5.6153,-5.6152,-5.6152,0,0,-5.5609,-5.5647,-5.5716,-5.5753,-5.5809,-5.583,-5.5847,-5.5901,-5.5918,-5.6,-5.5996,-5.6049,-5.6148,-5.6185,-5.6216,-5.6322,-5.6314,-5.6339,-5.6386,-5.6436,-5.6447,-5.6458,-5.6493,-5.6506,-5.6348,-5.6348,-5.6348,0,-5.5642,-5.5733,-5.5751,-5.5817,-5.5854,-5.5852,-5.5921,-5.5956,-5.6027,-5.6051,-5.6032,-5.6157,-5.6191,-5.6289,-5.6315,-5.6341,-5.6359,-5.6331,-5.6445,-5.6455,-5.6465,-5.6499,-5.6513,-5.6351,-5.635,-5.635,-5.635,0,-5.577,-5.5833,-5.5882,-5.5952,-5.5994,-5.6061,-5.6089,-5.6129,-5.6135,-5.6157,-5.6241,-5.6283,-5.6346,-5.6371,-5.6376,-5.6469,-5.6457,-5.6441,-5.6404,-5.6481,-5.6513,-5.6526,-5.6354,-5.6353,-5.6353,-5.6352,0,0,-5.5871,-5.5952,-5.5969,-5.6001,-5.6063,-5.6112,-5.618,-5.6243,-5.6277,-5.6327,-5.6382,-5.6467,-5.6453,-5.6489,-5.6499,-5.6543,-5.6622,-5.6522,-5.6524,-5.6537,-5.6726,-5.6736,-5.6751,-5.6619,-5.6622,-5.6624,-5.6721,0,-5.5965,-5.6085,-5.6104,-5.6208,-5.6267,-5.6268,-5.6326,-5.637,-5.6394,-5.6446,-5.6472,-5.6532,-5.651,-5.6532,-5.6576,-5.6603,-5.666,-5.6597,-5.6669,-5.6671,-5.6653,-5.6768,-5.6778,-5.6868,-5.6734,-5.6737,-5.6738,0,-5.6089,-5.6143,-5.6254,-5.6309,-5.6334,-5.6387,-5.6447,-5.6498,-5.6548,-5.6562,-5.6603,-5.6608,-5.6677,-5.6641,-5.6735,-5.6692,-5.6723,-5.6741,-5.6745,-5.675,-5.6707,-5.6774,-5.6897,-5.6909,-5.6759,-5.6757,-5.6756,0,-5.6149,-5.625,-5.633,-5.6357,-5.6424,-5.646,-5.6489,-5.6538,-5.6575,-5.6627,-5.6652,-5.6711,-5.6743,-5.6789,-5.681,-5.6781,-5.6903,-5.6868,-5.6915,-5.6914,-5.6937,-5.6935,-5.7065,-5.6962,-5.6962,-5.6962,-5.6962,0,-5.625,-5.6317,-5.6358,-5.6406,-5.6482,-5.6503,-5.6577,-5.6605,-5.6648,-5.6702,-5.6707,-5.6756,-5.6782,-5.6835,-5.6852,-5.6927,-5.6942,-5.6954,-5.6957,-5.6952,-5.6951,-5.6971,-5.6964,-5.6965,-5.6965,-5.6964,-5.6963,0,-5.6329,-5.6359,-5.6445,-5.6502,-5.6518,-5.6571,-5.6619,-5.6666,-5.6691,-5.6758,-5.6775,-5.6813,-5.6876,-5.6903,-5.698,-5.6991,-5.7077,-5.7076,-5.706,-5.706,-5.7105,-5.7099,-5.725,-5.727,-5.7156,-5.7157,-5.7158,0,-5.639,-5.6442,-5.6505,-5.6542,-5.6573,-5.6632,-5.667,-5.6694,-5.6734,-5.6796,-5.6835,-5.6899,-5.6951,-5.7052,-5.7085,-5.7145,-5.7144,-5.7193,-5.7153,-5.7146,-5.7142,-5.7138,-5.7143,-5.7199,-5.72,-5.7201,-5.7202,0,-5.6494,-5.6507,-5.6563,-5.6625,-5.6671,-5.672,-5.6768,-5.6798,-5.6829,-5.6874,-5.6939,-5.698,-5.706,-5.7122,-5.7184,-5.7213,-5.7212,-5.7215,-5.7229,-5.7223,-5.721,-5.7215,-5.7077,-5.7211,-5.721,-5.7209,-5.7209,-5.7208,-5.6565,-5.6611,-5.6663,-5.6725,-5.6764,-5.6809,-5.6856,-5.6887,-5.6943,-5.701,-5.7021,-5.7091,-5.714,-5.7223,-5.7255,-5.7309,-5.7297,-5.7317,-5.7322,-5.7326,-5.7327,-5.7204,-5.7321,-5.7321,-5.7321,-5.732,-5.732,0,-5.6667,-5.6701,-5.6759,-5.6827,-5.6876,-5.6874,-5.6927,-5.6967,-5.7029,-5.7076,-5.7128,-5.7203,-5.7264,-5.7304,-5.7366,-5.7401,-5.7403,-5.7417,-5.7413,-5.7419,-5.7336,-5.7317,-5.7414,-5.7414,-5.7414,-5.7414,-5.7414,-5.7414,-5.6726,-5.6804,-5.6823,-5.692,-5.6954,-5.7023,-5.7053,-5.7095,-5.7132,-5.7217,-5.7268,-5.7294,-5.7338,-5.7403,-5.7459,-5.7469,-5.7491,-5.7505,-5.7514,-5.7435,-5.7425,-5.7416,-5.7398,-5.751,-5.751,-5.7592,-5.7593,-5.7593]},{"header":{"parameterUnit":"m.s-1","parameterCategory":1,"la1":30.2991,"la2":30.254,"lo1":-89.0895,"lo2":-89.0444,"dy":0.0017,"dx":0.0017,"nx":28,"ny":28,"refTime":"2025-03-14T21:00:00:Z","depth":0,"parameterNumber":3,"parameterNumberName":"V-component_of_WINDS"},"data":[0,0,0,0,0,0,0,0,0,0,0,0,0,0,0,0,0,0,0,0,0,0,0,0,0,0,0,0,0,0,0,0,0,0,0,0,0,0,0,0,0,0,0,0,0,0,0,0,0,0,0,0,0,0,0,0,0,0,4.7528,4.7529,0,4.7618,4.7619,4.762,4.7643,4.7642,4.7642,4.7641,4.773,4.7733,4.7736,0,0,0,0,0,0,0,0,0,0,0,0,0,4.7373,4.7376,4.7528,4.7529,4.753,4.7618,4.7619,4.762,4.7643,4.7642,4.7642,4.7641,4.7729,4.7732,4.7736,0,0,0,0,0,0,0,0,0,0,0,0,0,4.7449,4.7377,4.7527,4.7552,4.7555,4.7618,4.7619,4.7621,4.7643,4.7642,4.7641,4.7641,4.7728,4.7732,4.7736,4.778,0,0,4.7749,4.7751,0,0,0,0,0,0,0,0,4.7445,4.7455,4.7547,4.755,4.7554,4.7619,4.7597,4.7674,4.7643,4.761,4.7641,4.764,4.7693,4.77,4.7719,4.7784,4.7788,4.775,4.7752,4.7754,4.7756,0,0,0,0,0,0,0,4.744,4.7451,4.7563,4.7548,4.7553,4.7558,4.7568,4.7612,4.7655,4.7612,4.7614,4.7625,4.7695,4.7715,4.7721,4.7789,4.775,4.7754,4.7756,4.7758,4.7898,4.7899,0,0,0,0,0,0,4.7431,4.7447,4.756,4.7566,4.7496,4.7561,4.7572,4.7598,4.7654,4.7662,4.7626,4.7626,4.7708,4.7716,4.7724,4.7782,4.7754,4.7758,4.7761,4.7897,4.7898,4.79,0,0,0,0,0,0,4.7427,4.744,4.7557,4.7507,4.7522,4.7565,4.7594,4.7601,4.7621,4.7665,4.7672,4.7638,4.7707,4.7718,4.7767,4.7785,4.776,4.7764,4.7896,4.7897,4.7899,4.7895,0,0,0,0,0,0,4.7423,4.7439,4.7456,4.7507,4.7525,4.7598,4.7595,4.7603,4.7629,4.763,4.7678,4.7685,4.7708,4.7761,4.7771,4.7791,4.7768,4.7894,4.7896,4.7898,4.7894,4.7896,4.7899,0,0,0,0,0,4.7417,4.745,4.7457,4.747,4.7547,4.7599,4.7609,4.7635,4.763,4.7648,4.7676,4.7684,4.7781,4.7765,4.7778,4.7798,4.7893,4.7896,4.7898,4.7893,4.7896,4.7899,0,0,0,0,0,0,4.7397,4.7457,4.7465,4.7516,4.7553,4.7603,4.7626,4.7637,4.7675,4.7674,4.7704,4.7714,4.7762,4.7785,4.7766,4.7845,4.7837,4.7842,4.7829,4.7832,4.7835,4.7828,4.7771,0,0,0,0,0,4.7399,4.7437,4.7487,4.7526,4.7545,4.7582,4.7606,4.7623,4.7662,4.7677,4.7709,4.7745,4.7785,4.7809,4.7847,4.7897,4.7909,4.7918,4.792,4.7922,4.7926,4.7957,4.7963,4.7908,4.7908,4.7908,0,0,4.7402,4.744,4.7462,4.7524,4.7554,4.7593,4.7595,4.7635,4.7664,4.7682,4.7732,4.7756,4.7799,4.785,4.7873,4.787,4.7944,4.7925,4.7926,4.793,4.7961,4.7966,4.797,4.791,4.7909,4.7909,0,0,4.7429,4.7461,4.7499,4.753,4.7578,4.7603,4.7612,4.7662,4.768,4.773,4.7746,4.7781,4.7846,4.7878,4.7902,4.7944,4.7954,4.7956,4.7969,4.7999,4.8003,4.8007,4.8024,4.803,4.796,4.796,4.796,0,4.7427,4.7487,4.7516,4.7558,4.7585,4.7606,4.7645,4.7674,4.773,4.7749,4.7745,4.7832,4.7861,4.7921,4.7932,4.795,4.7962,4.795,4.8,4.8004,4.8009,4.8025,4.8032,4.796,4.796,4.796,4.796,0,4.7484,4.7525,4.755,4.7608,4.7638,4.7678,4.7713,4.774,4.7756,4.7782,4.7834,4.7871,4.7919,4.7934,4.7948,4.7996,4.7993,4.7994,4.7987,4.8013,4.803,4.8036,4.796,4.796,4.796,4.796,0,0,4.7499,4.7575,4.7583,4.7611,4.7666,4.7699,4.774,4.7789,4.7813,4.7852,4.7888,4.7945,4.7948,4.7976,4.7994,4.802,4.8055,4.8018,4.802,4.8025,4.8113,4.8113,4.812,4.8061,4.8062,4.8063,4.811,0,4.7534,4.761,4.7639,4.7701,4.7742,4.7764,4.78,4.7838,4.7864,4.7902,4.7929,4.7971,4.797,4.7987,4.8014,4.8045,4.8073,4.8041,4.8096,4.8097,4.8086,4.8128,4.8127,4.8169,4.8116,4.8117,4.8118,0,4.7584,4.7627,4.7694,4.7748,4.7766,4.7798,4.7847,4.7883,4.7927,4.7944,4.7977,4.7994,4.8039,4.8029,4.8092,4.8071,4.8095,4.8113,4.8115,4.8122,4.811,4.8137,4.8183,4.819,4.8128,4.8127,4.8127,0,4.7591,4.7665,4.7716,4.7738,4.7802,4.7825,4.7852,4.7896,4.7924,4.7967,4.7986,4.8032,4.8057,4.8093,4.8123,4.8112,4.8184,4.8175,4.82,4.82,4.8214,4.8213,4.8266,4.8228,4.8228,4.8227,4.8227,0,4.7627,4.7668,4.772,4.7751,4.7799,4.7832,4.7877,4.7906,4.7945,4.7983,4.8003,4.8038,4.8075,4.8114,4.8137,4.8188,4.8198,4.8214,4.822,4.8213,4.8211,4.8229,4.8228,4.8229,4.8229,4.8228,4.8228,0,4.7643,4.7679,4.7737,4.7793,4.7809,4.7841,4.789,4.7921,4.7949,4.7996,4.8009,4.8053,4.8101,4.8135,4.8195,4.8211,4.8266,4.827,4.8251,4.8255,4.8278,4.8276,4.8346,4.8358,4.831,4.831,4.831,0,4.7664,4.7697,4.7758,4.7786,4.7814,4.7858,4.7888,4.7923,4.7954,4.8009,4.8034,4.8084,4.8126,4.8202,4.8238,4.8286,4.8293,4.8314,4.83,4.8293,4.8295,4.8294,4.8298,4.8316,4.8316,4.8317,4.8317,0,4.7699,4.7717,4.776,4.7812,4.7848,4.789,4.7931,4.7952,4.7994,4.8028,4.8079,4.8112,4.8176,4.8226,4.8277,4.8305,4.8319,4.8321,4.833,4.8323,4.8312,4.8321,4.8259,4.8319,4.8319,4.8319,4.8319,4.8319,4.772,4.7751,4.78,4.7849,4.7885,4.7924,4.7958,4.7992,4.8035,4.8092,4.8109,4.8162,4.8208,4.828,4.8309,4.8351,4.8349,4.8361,4.8364,4.8367,4.8368,4.8305,4.836,4.836,4.836,4.836,4.836,0,4.7757,4.7791,4.7836,4.7896,4.7935,4.7946,4.7994,4.8025,4.8073,4.8115,4.8157,4.8217,4.8266,4.8308,4.836,4.8386,4.8393,4.8398,4.8397,4.8404,4.8365,4.8354,4.8391,4.8391,4.8391,4.8391,4.8391,4.8391,4.7782,4.7836,4.786,4.7933,4.7967,4.8021,4.8047,4.8084,4.8119,4.8185,4.8228,4.8255,4.8299,4.8354,4.84,4.8411,4.843,4.8433,4.8446,4.8409,4.8406,4.8402,4.8392,4.8437,4.8437,4.8481,4.8482,4.8482]}]]